Regional Weather Roundup
Issued by NWS

Home | Current Version | Previous Version | Graphics & Text | Print | Product List | Glossary Off
Versions: 1 2 3 4 5 6 7 8 9 10 11 12 13 14 15 16 17 18 19 20 21 22 23 24 25 26 27 28 29 30 31 32 33 34 35 36 37 38 39 40 41 42 43 44 45 46 47 48 49 50

000
ASUS43 KMKX 232200
RWRWI

WISCONSIN REGIONAL WEATHER ROUNDUP
NATIONAL WEATHER SERVICE MILWAUKEE/SULLIVAN WI
500 PM CDT MON MAY 23 2016

NOTE: "FAIR" INDICATES FEW OR NO CLOUDS BELOW 12,000 FEET WITH NO
SIGNIFICANT WEATHER AND/OR OBSTRUCTIONS TO VISIBILITY.

WIZ001-002-006>008-014>016-023>028-232300-
NORTHWEST WISCONSIN

CITY           SKY/WX    TMP DP  RH WIND       PRES   REMARKS
SUPERIOR ARPT  CLOUDY    77  58  51 W9        29.72S
ASHLAND        CLOUDY    79  61  53 S15G23    29.73S HX  80
HAYWARD        LGT RAIN  71  62  73 S5        29.76S
SIREN          RAIN      71  62  74 SE16G22   29.75R
CUMBERLAND     LGT RAIN  68  61  77 SW8       29.77R
RICE LAKE      LGT RAIN  76  57  51 S14G23    29.78R
CHETEK         DRIZZLE   79  58  49 S12G18    29.76F HX  80
LADYSMITH      LGT RAIN  77  57  49 S13G21    29.80S
EAU CLAIRE     NOT AVBL
MENOMONIE      CLOUDY    73  60  62 S6G15     29.75F
NEW RICHMOND   CLOUDY    77  60  55 SW17G28   29.77S
OSCEOLA        CLOUDY    78  60  53 S18G24    29.78R HX  80
$$

WIZ003>005-009-010-017-018-232300-
NORTH CENTRAL WISCONSIN

CITY           SKY/WX    TMP DP  RH WIND       PRES   REMARKS
MANITOWISH WTR MOSUNNY   82  50  33 S15G23    29.78S HX  80
ARBOR VITAE    SUNNY     82  45  26 S18G26    29.79F HX  80
WOODRUFF       SUNNY     82  45  26 S18G26    29.79F HX  80
RHINELANDER    SUNNY     83  39  21 S14G29    29.82S HX  81
EAGLE RIVER      N/A     82  35  18 SW13G26   29.80S HX  80
LAND O LAKES   SUNNY     84  39  20 S10G23    29.80S HX  81
PHILLIPS       CLOUDY    79  52  38 S17G25    29.79R
TOMAHAWK       SUNNY     81  45  27 S8        29.82S HX  80
MEDFORD        MOSUNNY   81  48  30 S22G29    29.82S HX  80
MERRILL        SUNNY     83  44  25 SW12G22   29.83S HX  81
$$

WIZ029-030-035-036-043>047-232300-
CENTRAL WISCONSIN

CITY           SKY/WX    TMP DP  RH WIND       PRES   REMARKS
WAUSAU         SUNNY     85  42  22 S22G28    29.81F HX  82
MOSINEE        SUNNY     81  41  24 S17       29.84F
MARSHFIELD     CLOUDY    83  46  27 S23G30    29.82S HX  81
STEVENS POINT  SUNNY     82  40  22 S21G29    29.84F HX  80
WAUPACA        SUNNY     86  38  18 S17       29.85F HX  83
WAUTOMA        SUNNY     85  45  24 S15G21    29.86F HX  82
WISC RAPIDS    SUNNY     84  39  20 SW15G25   29.85S HX  81
CAMP DOUGLAS   CLOUDY    83  50  32 S12G22    29.84S HX  81
$$

WIZ011>013-019>022-031-037>040-048>050-232300-
NORTHEAST WISCONSIN

CITY           SKY/WX    TMP DP  RH WIND       PRES   REMARKS
ANTIGO         SUNNY     82  42  24 S15G23    29.84F HX  80
SHAWANO        SUNNY     85  43  22 S8G20     29.85F HX  82
OCONTO         CLOUDY    78  53  40 S12G21    29.86F
STURGEON BAY   NOT AVBL
GREEN BAY      CLOUDY    84  44  24 S13G22    29.86F HX  82
MANITOWOC      NOT AVBL
APPLETON       MOSUNNY   82  43  24 S14       29.87S HX  80
CLINTONVILLE   MOSUNNY   84  37  18 S20G25    29.85S HX  81
OSHKOSH        SUNNY     82  47  29 S17       29.87F HX  80
$$

WIZ032>034-041-042-053>061-232300-
SOUTHWEST WISCONSIN

CITY           SKY/WX    TMP DP  RH WIND       PRES   REMARKS
LA CROSSE      MOSUNNY   86  46  24 S20G31    29.79F HX  83
SPARTA         MOSUNNY   85  45  24 S20G30    29.84S HX  82
VIROQUA        MOSUNNY   84  41  21 S14G21    29.86F HX  82
BOSCOBEL       MOSUNNY   87  42  20 S15G22    29.85F HX  84
PRAIRIE DU CHI SUNNY     85  41  21 SE14G20   29.84S HX  82
PLATTEVILLE    MOSUNNY   84  43  24 S20G26    29.89F HX  81
$$

WIZ056-057-062-063-064-067-068-232300-
SOUTH CENTRAL WISCONSIN

CITY           SKY/WX    TMP DP  RH WIND       PRES   REMARKS
REEDSBURG      CLOUDY    83  47  29 S16G22    29.87S HX  81
BARABOO/DELLS  CLOUDY    82  38  20 S15G22    29.88S HX  80
LONE ROCK      NOT AVBL
MINERAL POINT  CLOUDY    82  41  23 S16G22    29.89F HX  80
MADISON        PTSUNNY   82  45  27 S16       29.88F HX  80
MIDDLETON      SUNNY     85  39  19 S14G22    29.89F HX  82
WATERTOWN      SUNNY     83  47  28 S13G20    29.90R HX  81
MONROE         CLOUDY    82  43  24 S15G22    29.91S HX  80
JANESVILLE     SUNNY     84  41  21 S13G20    29.90S HX  81
$$

WIZ051-052-058>065-066-070>072-232300-
SOUTHEAST WISCONSIN

CITY           SKY/WX    TMP DP  RH WIND       PRES   REMARKS
MILWAUKEE      MOSUNNY   75  41  29 SE16      29.93F
WAUKESHA       SUNNY     79  45  29 SE12      29.93F
MILWAUKEE/TIMM SUNNY     79  39  24 S9        29.93F
RACINE         SUNNY     73  37  27 S13       29.96F
BURLINGTON     SUNNY     82  44  26 SE13      29.92F HX  80
KENOSHA        SUNNY     76  41  28 SE15      29.94F
FOND DU LAC    SUNNY     84  46  26 S17       29.88F HX  82
SHEBOYGAN      SUNNY     73  41  31 SE9G26    29.92F
WEST BEND      SUNNY     79  43  27 SE9       29.91F
JUNEAU         SUNNY     81  47  30 S14       29.91S HX  80
$$

LSZ147-162-232300-
LAKE SUPERIOR

STATION/POSITION TIME  TEMP    WIND        PRES    WAVE
                       AIR SEA DIR/SP/G            HT/PER
                 (UTC) (F)     (DEG/KT/KT) (MB)    (FT/S)
W MID LAKE BUOY  2050   47 38  330/  6/  6 1006.9R   1
DEVILS ISLAND    2100   66     240/  3/  5 1006.7F
SAXON HARBOR     2100   84     230/ 10/ 21 1005.8R
$$

LMZ867-665-643>646-232300-
LAKE MICHIGAN

STATION/POSITION TIME  TEMP    WIND        PRES    WAVE
                       AIR SEA DIR/SP/G            HT/PER
                 (UTC) (F)     (DEG/KT/KT) (MB)    (FT/S)
CHAMBERS ISLAND  2100   71     150/  6/ 15 1012.2
N MID LAKE BUOY  2050   51 45  190/ 14/ 17 1013.0F   1/ 3
NORTHPORT PIER   2100   63     150/  8/ 18 1012.9F
KEWAUNEE LAKESHO 2100   53     180/ 13/ 15 1013.1F
SHEBOYGAN LAKESH 2100   58     170/ 19/ 21 1014.1F
PORT WASHINGTON  2100   63     190/  4/  8 1014.9F
S MID LAKE BUOY  2050   58 51  150/  4/  6 1014.6F   0
KENOSHA   LAKESH 2100   62     170/ 10/ 12 1014.2F
$$

TC  - TEMPERATURE IN CELSIUS
VSB - VISIBILITY IN STATUTE MILES
WCI - WIND CHILL INDEX
HX  - HEAT INDEX




USA.gov is the U.S. government's official web portal to all federal, state and local government web resources and services.